Weather History for Paganella, Italy

Change the Weather History Date:

Monday, September 30, 2013

  Actual Average Record
Temperature  
Mean Temperature 41 °F -  
Max Temperature 43 °F 43 °F 57 °F (1996)
Min Temperature 39 °F 35 °F 32 °F (2002)
Degree Days  
Heating Degree Days 24    
Moisture  
Dew Point 40 °F    
Average Humidity 93    
Maximum Humidity 100    
Minimum Humidity 81    
Precipitation  
Precipitation 0.01 in 0.10 in - ()
Sea Level Pressure  
Sea Level Pressure 29.72 in    
Wind  
Wind Speed 4 mph ()    
Max Wind Speed 20 mph    
Max Gust Speed -    
Visibility 2.3 miles    
Events Fog , Rain    
Averages and records for this station are not official NWS values.
T = Trace of Precipitation, MM = Missing Value Source: Averaged Metar Reports

Daily Weather History Graph

Daily Weather History Graph

Search for Another Location

Airport:

Trip Planner

Search our weather history database for the weather conditions in past years. The results will help you decide how hot, cold, wet, or windy it might be!

Date:

Astronomy

Sep. 30, 2013 Rise Set
Actual Time 7:13 AM CEST 6:57 PM CEST
Civil Twilight 6:43 AM CEST 7:27 PM CEST
Nautical Twilight 6:08 AM CEST 8:02 PM CEST
Astronomical Twilight 5:32 AM CEST 8:37 PM CEST
Moon 2:20 AM CEST (9/30) 4:30 PM CEST (9/30)
Length of Visible Light 12h 44m
Length of Day
11h 44m
Waning Crescent, 21% of the Moon is Illuminated
Sep 30
Waning Crescent
Oct 5
New
Oct 12
First Quarter
Oct 19
Full
Oct 27
Last Quarter

Hourly Weather History & Observations

Time (CEST) Temp. Windchill Dew Point Humidity Pressure Visibility Wind Dir Wind Speed Gust Speed Precip Events Conditions
12:55 AM 42.8 °F - 41.0 °F 93% 29.77 in 0.3 mi Calm Calm - N/A Fog , Rain Light Rain
1:55 AM 41.0 °F - 39.2 °F 93% 29.74 in 0.2 mi Calm Calm - N/A Fog , Rain Light Rain
2:00 AM 42 °F - 38 °F 83%  in 0 mi Calm Calm - - Rain Light Rain
2:55 AM 42.8 °F - 39.2 °F 87% 29.74 in 0.2 mi Calm Calm - N/A Fog , Rain Light Rain
3:55 AM 41.0 °F - 39.2 °F 93% 29.71 in 0.2 mi Calm Calm - N/A Fog , Rain Light Rain
4:55 AM 41.0 °F - 39.2 °F 93% 29.71 in 0.2 mi Calm Calm - N/A Fog , Rain Light Rain
5:00 AM 42 °F - 38 °F 83%  in 0 mi Calm Calm - - Rain Light Rain
5:55 AM 42.8 °F - 39.2 °F 87% 29.71 in 0.1 mi Calm Calm - N/A Fog , Rain Light Rain
6:55 AM 41.0 °F - 41.0 °F 100% 29.68 in 0.0 mi Calm Calm - N/A Fog , Rain Light Rain
7:55 AM 39.2 °F 31.6 °F 39.2 °F 100% 29.68 in 0.0 mi North 12.7 mph - N/A Fog , Rain Light Rain
8:00 AM 40 °F - 39 °F 97%  in 0 mi North 12.7 mph - - Rain Light Rain
8:55 AM 39.2 °F 34.2 °F 39.2 °F 100% 29.68 in 0.4 mi North 6.9 mph - N/A Fog , Rain Light Rain
9:55 AM 39.2 °F 33.0 °F 39.2 °F 100% 29.68 in 0.6 mi North 9.2 mph - N/A Fog , Rain Light Rain
10:55 AM 39.2 °F 35.0 °F 39.2 °F 100% 29.68 in 0.6 mi North 5.8 mph - N/A Fog Fog
11:55 AM 41.0 °F 37.1 °F 41.0 °F 100% 29.71 in 0.4 mi North 5.8 mph - N/A Fog Fog
12:55 PM 41.0 °F 37.1 °F 39.2 °F 93% 29.71 in 5.0 mi North 5.8 mph - N/A   Mostly Cloudy
1:55 PM 42.8 °F 41.1 °F 41.0 °F 93% 29.71 in 6.2 mi North 3.5 mph - N/A   Mostly Cloudy
2:00 PM 42 °F - 40 °F 92%  in 6 mi North 3.5 mph - -   Partly Cloudy
2:55 PM 42.8 °F 39.3 °F 41.0 °F 93% 29.71 in 6.2 mi North 5.8 mph - N/A   Mostly Cloudy
3:55 PM 42.8 °F 41.1 °F 41.0 °F 93% 29.71 in 6.2 mi North 3.5 mph - N/A   Mostly Cloudy
4:55 PM 41.0 °F 33.5 °F 39.2 °F 93% 29.71 in 6.2 mi North 13.8 mph - N/A   Scattered Clouds
5:00 PM 42 °F - 40 °F 88%  in 6 mi North 13.8 mph - -   Mostly Cloudy
5:55 PM 42.8 °F 34.3 °F 37.4 °F 81% 29.71 in 6.2 mi North 19.6 mph - N/A   Scattered Clouds
6:55 PM 42.8 °F 41.1 °F 37.4 °F 81% 29.71 in 6.2 mi North 3.5 mph - N/A   Scattered Clouds
7:55 PM 41.0 °F 34.3 °F 39.2 °F 93% 29.74 in - NNW 11.5 mph - N/A   Clear
8:00 PM 41 °F - 39 °F 88%  in 9 mi NNW 11.5 mph - -   Partly Cloudy
8:55 PM 41.0 °F 33.9 °F 39.2 °F 93% 29.74 in - North 12.7 mph - N/A   Clear
9:55 PM 41.0 °F 34.3 °F 41.0 °F 100% 29.74 in 0.2 mi North 11.5 mph - N/A Fog Fog
10:55 PM 41.0 °F 33.5 °F 41.0 °F 100% 29.74 in 0.0 mi North 13.8 mph - N/A Fog Fog
11:00 PM 40 °F - 40 °F 100%  in 0 mi North 13.8 mph - - Fog Heavy Fog
11:55 PM 41.0 °F 34.7 °F 41.0 °F 100% 29.77 in 0.0 mi North 10.4 mph - N/A Fog Fog